Погода в Бэппу

Япония     33°16′47″N   131°29′45″E
темп.,
°C
ветер,
м/с
пор.,
м/с
влажн.,
%
обл.,
%
осадки,
мм/ч
давл.,
гПа
погр.,
м
7 мая, пт
пт700:00+13зюз117588 0.0 101616
03:00+14зсз1167100 0.0 101513
06:00+14зюз0067100 0.0 101511
09:00+13ю1194100 1.9 101484
12:00+13юв1296100 1.8 1012130
15:00+14всв0097100 2.1 101049
18:00+16юв1192100 0.1 1010185
21:00+13з2195100 0.1 101220
8 мая, сб
сб800:00+13з119454 0.0 101220
03:00+12з119456 0.0 101115
06:00+13зюз1194100 0.0 101122
09:00+19ю1271100 0.0 1010632
12:00+20вюв1359100 0.0 1009628
15:00+19в0474100 0.0 1007586
18:00+17зюз1183100 0.0 100829
21:00+15зюз2383100 0.0 100957
9 мая, вс
вс900:00+14зюз3487100 0.0 100985
03:00+16зюз258499 0.0 1008341
06:00+15зюз238960 0.1 1009142
09:00+21зюз276233 0.1 10101341
12:00+23з486011 0.3 10101476
15:00+23сз375118 0.6 10091486
18:00+19с13641 0.1 1010103
21:00+13ююз11770 0.1 101312
10 мая, пн
пн1000:00+13юз11910 0.0 101314
03:00+13з11920 0.0 101214
06:00+13зюз11880 0.0 101211
09:00+20в21640 0.0 1012506
12:00+22всв326236 0.4 1012490
15:00+21всв21557 0.8 1010449
18:00+18ссз017799 0.0 101080
21:00+16юз228922 0.0 101023
11 мая, вт
вт1100:00+15з119171 0.0 101015
03:00+16юв1190100 0.0 101016
06:00+17всв0090100 0.1 101025
09:00+17в1189100 0.1 1011142
12:00+18в1182100 0.0 1011273
15:00+19в2178100 0.1 1009338
18:00+16всв1199100 4.3 1010119
21:00+15в0199100 5.6 101157